Location: *
(35.8942°N, 23.3025°E)
Time: 00:11:49
(UTC+00:00)

N. Korean satellite - Pass Details

Date: 01 December 2022
Orbit: 407 x 442 km, 97.3° (Epoch: 05 February)

Event Time Altitude Azimuth Distance (km) Brightness Sun altitude
Rises 15:51:13 0° 204° (SSW) 2,415 10.9 -7.9°
Reaches altitude 10° 15:53:50 10° 227° (SW) 1,566 10.4 -8.4°
Maximum altitude 15:55:56 16° 266° (W) 1,278 9.9 -8.8°
Drops below altitude 10° 15:58:04 10° 305° (NW) 1,597 9.7 -9.2°
Sets 16:00:46 0° 328° (NNW) 2,488 10.3 -9.7°
